Weather in Bilytske

Ukraine / Donetsk Region     48°24′26″N   37°10′50″E
temp.,
°C
wind,
m/s
gust,
m/s
humid.,
%
clouds,
%
prec.,
mm/h
press.,
hPa
HPBL,
m
13 april, tue
tue1300:00+11ssw2383100 0.0 1022192
03:00+10sw1284100 0.0 102289
06:00+10wnw1187100 0.1 102257
09:00+11nw2285100 0.1 1021173
12:00+10wsw4385100 0.0 1021350
15:00+10sw3478100 0.0 1022432
18:00+13s246587 0.0 1021943
21:00+11s3678100 0.0 1022211
14 april, wed
wed1400:00+10ssw2479100 0.0 1021182
03:00+8sw118291 0.0 102014
06:00+7sw1182100 0.0 102010
09:00+9ne1273100 0.1 1019241
12:00+9wsw1181100 0.1 1018146
15:00+10wsw2379100 0.8 1017270
18:00+13sse1264100 0.0 1016506
21:00+9ssw228027 0.0 101616
15 april, thu
thu1500:00+8s33855 0.0 101633
03:00+7ssw339091 0.0 101655
06:00+6s2387100 0.0 101646
09:00+10s467066 0.0 1016425
12:00+15s675393 0.0 10141553
15:00+13ssw6868100 0.4 1015971
18:00+13s686842 0.2 1014973
21:00+10s51084100 1.1 1015460
16 april, fri
fri1600:00+8s379236 0.1 1015194
03:00+6ssw489566 0.1 1015219
06:00+5sw37955 0.0 1016234
09:00+9sw56625 0.0 1017890
12:00+12sw454986 0.0 10161741
15:00+12sw564741 0.0 10171591
18:00+11sw345048 0.0 1017799
21:00+9sw3362100 0.0 101759
17 april, sat
sat1700:00+8sw4777100 0.1 1018266
03:00+6sw368524 0.1 1019133
06:00+4wsw35865 0.0 1019109
09:00+9wsw45560 0.0 1020643
12:00+13wsw454512 0.0 10201679
15:00+13wsw4444100 0.0 10201768
18:00+12wnw345482 0.0 1020584
21:00+11wnw1161100 0.0 102111